MDT,Max TemperatureF,Mean TemperatureF,Min TemperatureF,Max Dew PointF,MeanDew PointF,Min DewpointF,Max Humidity, Mean Humidity, Min Humidity, Max Sea Level PressureIn, Mean Sea Level PressureIn, Min Sea Level PressureIn, Max VisibilityMiles, Mean VisibilityMiles, Min VisibilityMiles, Max Wind SpeedMPH, Mean Wind SpeedMPH, Max Gust SpeedMPH,PrecipitationIn, CloudCover, Events, WindDirDegrees
2012-9-1,82,65,47,54,45,39,80,52,23,30.31,30.03,29.88,10,10,10,35,11,41,T,4,Rain-Thunderstorm,203
2012-9-2,78,65,52,48,40,30,72,48,23,30.01,29.95,29.91,10,10,10,23,12,31,0.00,2,,242
2012-9-3,79,63,47,43,33,22,66,39,12,30.26,29.97,29.92,10,10,10,29,13,38,0.00,1,,240
2012-9-4,81,62,42,36,25,17,70,40,10,30.22,29.94,29.87,10,10,10,33,14,39,0.00,1,,247
2012-9-5,79,58,36,24,18,10,52,30,7,30.18,29.95,29.88,10,10,10,29,12,37,0.00,0,,247
2012-9-6,83,63,43,33,22,16,33,22,10,30.20,29.89,29.81,10,10,10,31,15,46,T,2,Rain,265
2012-9-7,67,54,41,38,36,32,76,53,29,30.40,30.11,29.94,10,10,10,22,9,28,T,3,,73
2012-9-8,73,52,31,38,24,4,92,50,7,30.50,30.24,30.16,10,10,10,13,6,16,0.00,0,,168
2012-9-9,82,59,36,29,24,18,54,32,9,30.37,30.04,29.90,10,10,10,23,12,30,0.00,0,,192
2012-9-10,82,64,45,36,29,25,43,29,15,30.11,29.85,29.77,10,10,10,22,10,29,0.00,1,,223
2012-9-11,74,59,43,51,41,33,96,62,27,30.15,29.87,29.78,10,10,6,23,9,29,0.19,4,Rain,215
2012-9-12,59,50,41,48,45,41,96,79,62,30.33,30.14,29.87,10,10,10,22,10,25,0.01,4,Rain,127
2012-9-13,68,50,31,40,31,18,100,58,15,30.50,30.38,30.29,10,8,0,10,6,17,0.00,0,Fog,185
2012-9-14,75,54,32,36,27,13,82,46,9,30.38,30.27,30.14,10,10,10,21,8,25,0.00,0,,173
2012-9-15,79,57,35,29,17,3,64,35,6,30.37,30.08,29.98,10,10,10,28,9,33,0.00,0,,231
2012-9-16,76,57,37,32,19,14,54,33,11,30.03,29.96,29.90,10,10,10,28,12,35,0.00,1,,238
2012-9-17,63,49,34,35,33,30,79,55,30,30.22,30.03,29.97,10,10,10,21,7,29,0.00,2,,42
2012-9-18,73,52,31,31,26,23,85,51,16,30.26,30.06,29.97,10,10,10,25,9,31,0.00,0,,254
2012-9-19,73,56,39,26,24,22,46,31,16,30.24,30.04,29.95,10,10,8,17,6,20,0.00,0,,128
2012-9-20,73,55,36,25,23,20,50,33,15,30.28,30.04,29.98,10,10,10,23,8,32,0.00,0,,317
2012-9-21,73,53,33,26,23,19,59,38,16,30.14,30.08,30.00,10,10,10,23,9,31,0.00,0,,273
2012-9-22,75,54,32,34,27,20,59,36,13,30.36,30.10,30.01,10,10,10,20,9,24,0.00,0,,169
2012-9-23,76,56,36,32,25,18,70,41,12,30.10,30.00,29.93,10,10,10,24,7,33,0.00,2,,203
2012-9-24,67,55,43,46,39,36,86,60,34,30.17,29.96,29.83,10,10,10,25,8,32,0.03,5,Rain-Thunderstorm,314
2012-9-25,67,52,37,47,41,35,93,64,34,30.16,29.97,29.83,10,10,10,21,6,26,0.08,5,Rain-Thunderstorm,135
2012-9-26,59,52,44,46,44,41,100,79,57,30.21,30.06,29.89,10,9,2,21,7,24,0.15,6,Rain,145
2012-9-27,60,50,40,44,42,39,96,76,55,30.28,30.11,30.02,10,10,10,22,6,28,0.01,6,Rain-Thunderstorm,230
2012-9-28,67,50,32,42,36,27,100,62,24,30.15,30.08,30.01,10,10,10,15,7,18,0.00,1,,170
2012-9-29,71,54,36,40,34,28,92,58,24,30.10,30.03,29.97,10,10,10,32,9,39,T,3,,236
2012-9-30,68,52,36,36,33,27,85,55,24,30.15,30.07,29.99,10,10,10,23,8,30,T,4,,342